Weather History for Cody, WY

Change the Weather History Date:

Monday, February 25, 2013

  Actual Average Record
Temperature  
Mean Temperature 28 °F -  
Max Temperature 42 °F 46 °F 63 °F (1950)
Min Temperature 15 °F 22 °F -20 °F (1964)
Degree Days  
Heating Degree Days 36    
Moisture  
Dew Point 12 °F    
Average Humidity 51    
Maximum Humidity 93    
Minimum Humidity 33    
Precipitation  
Precipitation 0.00 in - - ()
Sea Level Pressure  
Sea Level Pressure 29.85 in    
Wind  
Wind Speed 5 mph (NW)    
Max Wind Speed 18 mph    
Max Gust Speed 29 mph    
Visibility 10 miles    
Events      
Averages and records for this station are not official NWS values.
T = Trace of Precipitation, MM = Missing Value Source: NWS Daily Summary

Daily Weather History Graph

Daily Weather History Graph

Search for Another Location

Airport:

Trip Planner

Search our weather history database for the weather conditions in past years. The results will help you decide how hot, cold, wet, or windy it might be!

Date:

Astronomy

Feb. 25, 2013 Rise Set
Actual Time 6:59 AM MST 5:59 PM MST
Civil Twilight 6:30 AM MST 6:28 PM MST
Nautical Twilight 5:56 AM MST 7:02 PM MST
Astronomical Twilight 5:23 AM MST 7:35 PM MST
Moon 6:18 PM MST (2/25) 6:30 AM MST (2/25)
Length of Visible Light 11h 58m
Length of Day
10h 59m
Full, 100% of the Moon is Illuminated
Feb 25
Full
Feb 25
Full
Mar 4
Last Quarter
Mar 11
New
Mar 19
First Quarter

Hourly Weather History & Observations

Time (MST) Temp. Windchill Dew Point Humidity Pressure Visibility Wind Dir Wind Speed Gust Speed Precip Events Conditions
12:15 AM 19.4 °F - 8.6 °F 63% 29.97 in 10.0 mi Calm Calm - N/A   Clear
12:35 AM 17.6 °F 12.3 °F 12.2 °F 79% 29.97 in 10.0 mi NE 3.5 mph - N/A   Clear
12:55 AM 17.6 °F - 12.2 °F 79% 29.97 in 10.0 mi Calm Calm - N/A   Clear
1:15 AM 17.6 °F - 15.8 °F 93% 29.97 in 10.0 mi Calm Calm - N/A   Clear
1:55 AM 24.8 °F 16.9 °F 12.2 °F 59% 29.97 in 10.0 mi WSW 6.9 mph - N/A   Clear
2:15 AM 17.6 °F - 10.4 °F 73% 29.97 in 10.0 mi Calm Calm - N/A   Clear
2:35 AM 15.8 °F 8.6 °F 10.4 °F 79% 29.96 in 10.0 mi South 4.6 mph - N/A   Clear
2:55 AM 17.6 °F - 10.4 °F 73% 29.95 in 10.0 mi Calm Calm - N/A   Clear
3:15 AM 24.8 °F 15.3 °F 12.2 °F 59% 29.94 in 10.0 mi SW 9.2 mph - N/A   Clear
3:35 AM 21.2 °F 16.4 °F 8.6 °F 58% 29.94 in 10.0 mi WNW 3.5 mph - N/A   Clear
3:55 AM 17.6 °F - 10.4 °F 73% 29.94 in 10.0 mi Calm Calm - N/A   Clear
4:15 AM 24.8 °F 14.6 °F 12.2 °F 59% 29.93 in 10.0 mi WSW 10.4 mph - N/A   Clear
4:35 AM 21.2 °F 13.6 °F 8.6 °F 58% 29.94 in 10.0 mi West 5.8 mph - N/A   Clear
4:55 AM 28.4 °F 19.1 °F 8.6 °F 43% 29.93 in 10.0 mi SW 10.4 mph 18.4 mph N/A   Clear
5:15 AM 26.6 °F 21.2 °F 8.6 °F 47% 29.93 in 10.0 mi West 4.6 mph - N/A   Clear
5:35 AM 26.6 °F 20.0 °F 6.8 °F 43% 29.93 in 10.0 mi WSW 5.8 mph - N/A   Clear
6:15 AM 26.6 °F 17.5 °F 8.6 °F 47% 29.92 in 10.0 mi WSW 9.2 mph 23.0 mph N/A   Clear
6:35 AM 23.0 °F - 6.8 °F 50% 29.92 in 10.0 mi Calm Calm - N/A   Clear
6:55 AM 19.4 °F - 6.8 °F 58% 29.91 in 10.0 mi Calm Calm - N/A   Clear
7:16 AM 23.0 °F 15.8 °F 10.4 °F 59% 29.91 in 10.0 mi West 5.8 mph - N/A   Clear
7:55 AM 21.2 °F 13.6 °F 10.4 °F 63% 29.91 in 10.0 mi NE 5.8 mph - N/A   Clear
8:15 AM 19.4 °F - 12.2 °F 74% 29.91 in 10.0 mi Calm Calm - N/A   Clear
8:36 AM 21.2 °F 13.6 °F 14.0 °F 74% 29.90 in 10.0 mi West 5.8 mph - N/A   Clear
8:55 AM 24.8 °F 16.9 °F 10.4 °F 54% 29.89 in 10.0 mi North 6.9 mph - N/A   Clear
9:15 AM 24.8 °F 20.5 °F 12.2 °F 59% 29.88 in 10.0 mi NE 3.5 mph - N/A   Clear
9:35 AM 32.0 °F 25.6 °F 14.0 °F 48% 29.88 in 10.0 mi NNW 6.9 mph 20.7 mph N/A   Clear
9:55 AM 33.8 °F 24.3 °F 14.0 °F 44% 29.87 in 10.0 mi WSW 13.8 mph 19.6 mph N/A   Clear
10:15 AM 33.8 °F 27.0 °F 14.0 °F 44% 29.86 in 10.0 mi WNW 8.1 mph - N/A   Clear
10:35 AM 32.0 °F 28.7 °F 17.6 °F 55% 29.86 in 10.0 mi SE 3.5 mph - N/A   Clear
10:55 AM 33.8 °F 29.6 °F 15.8 °F 48% 29.84 in 10.0 mi North 4.6 mph - N/A   Clear
11:15 AM 35.6 °F 31.7 °F 15.8 °F 44% 29.83 in 10.0 mi North 4.6 mph - N/A   Clear
11:35 AM 37.4 °F 30.8 °F 15.8 °F 41% 29.82 in 10.0 mi ENE 9.2 mph - N/A   Clear
11:55 AM 37.4 °F 30.8 °F 15.8 °F 41% 29.81 in 10.0 mi NNE 9.2 mph - N/A   Clear
12:15 PM 39.2 °F 32.5 °F 15.8 °F 39% 29.80 in 10.0 mi NE 10.4 mph - N/A   Clear
12:35 PM 39.2 °F 32.0 °F 17.6 °F 42% 29.79 in 10.0 mi North 11.5 mph - N/A   Clear
12:55 PM 39.2 °F 32.0 °F 15.8 °F 39% 29.78 in 10.0 mi NE 11.5 mph - N/A   Clear
1:15 PM 41.0 °F 34.7 °F 17.6 °F 39% 29.77 in 10.0 mi North 10.4 mph - N/A   Clear
1:35 PM 41.0 °F 36.4 °F 15.8 °F 36% 29.77 in 10.0 mi North 6.9 mph - N/A   Clear
2:15 PM 42.8 °F 41.1 °F 15.8 °F 34% 29.76 in 10.0 mi NW 3.5 mph 17.3 mph N/A   Clear
2:55 PM 42.8 °F 34.5 °F 15.8 °F 34% 29.75 in 10.0 mi West 18.4 mph 26.5 mph N/A   Clear
3:15 PM 42.8 °F 35.8 °F 15.8 °F 34% 29.76 in 10.0 mi West 13.8 mph 21.9 mph N/A   Partly Cloudy
3:35 PM 41.0 °F 33.9 °F 14.0 °F 33% 29.75 in 10.0 mi WNW 12.7 mph 19.6 mph N/A   Partly Cloudy
4:15 PM 37.4 °F 29.3 °F 12.2 °F 36% 29.75 in 10.0 mi North 12.7 mph 18.4 mph N/A   Clear
4:35 PM 37.4 °F 30.8 °F 12.2 °F 36% 29.76 in 10.0 mi North 9.2 mph - N/A   Partly Cloudy
4:55 PM 35.6 °F 28.6 °F 12.2 °F 38% 29.76 in 10.0 mi NNE 9.2 mph - N/A   Scattered Clouds
5:15 PM 35.6 °F 29.9 °F 12.2 °F 38% 29.76 in 10.0 mi WNW 6.9 mph - N/A   Overcast
5:35 PM 33.8 °F 27.0 °F 14.0 °F 44% 29.75 in 10.0 mi North 8.1 mph - N/A   Overcast
5:55 PM 32.0 °F 24.2 °F 15.8 °F 51% 29.76 in 10.0 mi North 9.2 mph - N/A   Overcast
6:15 PM 30.2 °F - 17.6 °F 60% 29.76 in 10.0 mi Calm Calm - N/A   Overcast
6:35 PM 30.2 °F - 15.8 °F 55% 29.77 in 10.0 mi Calm Calm - N/A   Overcast
6:55 PM 30.2 °F 24.3 °F 15.8 °F 55% 29.77 in 10.0 mi NNE 5.8 mph - N/A   Overcast
7:15 PM 30.2 °F - 17.6 °F 60% 29.78 in 10.0 mi Calm Calm - N/A   Overcast
7:35 PM 30.2 °F 26.7 °F 17.6 °F 60% 29.78 in 10.0 mi West 3.5 mph - N/A   Overcast
7:55 PM 33.8 °F 23.9 °F 10.4 °F 38% 29.79 in 10.0 mi West 15.0 mph 28.8 mph N/A   Overcast
8:35 PM 33.8 °F 25.8 °F 10.4 °F 38% 29.80 in 10.0 mi West 10.4 mph 19.6 mph N/A   Overcast
8:55 PM 33.8 °F 24.8 °F 10.4 °F 38% 29.80 in 10.0 mi West 12.7 mph 17.3 mph N/A   Overcast
9:15 PM 32.0 °F 22.1 °F 10.4 °F 41% 29.80 in 10.0 mi West 13.8 mph 18.4 mph N/A   Mostly Cloudy
9:35 PM 32.0 °F 26.4 °F 10.4 °F 41% 29.81 in 10.0 mi West 5.8 mph - N/A   Overcast
9:55 PM 32.0 °F 24.8 °F 10.4 °F 41% 29.81 in 10.0 mi WNW 8.1 mph - N/A   Overcast
10:35 PM 32.0 °F 26.4 °F 8.6 °F 38% 29.82 in 10.0 mi WNW 5.8 mph - N/A   Overcast
10:55 PM 30.2 °F 23.4 °F 8.6 °F 40% 29.83 in 10.0 mi West 6.9 mph - N/A   Overcast
11:15 PM 30.2 °F 23.4 °F 8.6 °F 40% 29.83 in 10.0 mi West 6.9 mph - N/A   Overcast
11:35 PM 30.2 °F 24.3 °F 8.6 °F 40% 29.84 in 10.0 mi WNW 5.8 mph - N/A   Overcast
11:55 PM 30.2 °F 21.9 °F 8.6 °F 40% 29.84 in 10.0 mi West 9.2 mph - N/A   Overcast